Location: Mizzole
(45.4833°N, 11.0500°E)
Time: 01:48:59
(UTC+00:00)

SKYMED 2 - Pass Details

Date: 21 October 2019
Orbit: 621 x 623 km, 97.9° (Epoch: 12 November)

Event Time Altitude Azimuth Distance (km) Brightness Sun altitude
Rises 17:38:05 0° 10° (N) 2,913 6.9 -14.2°
Reaches altitude 10° 17:40:17 10° 9° (N) 2,002 6.1 -14.6°
Maximum altitude 17:44:37 70° 286° (WNW) 664 3.9 -15.4°
Drops below altitude 10° 17:48:55 10° 203° (SSW) 1,986 6.4 -16.1°
Sets 17:51:06 0° 201° (SSW) 2,887 7.3 -16.5°
